Change the Weather History Date:

Friday, January 4, 2013

  Actual Average Record
Temperature  
Mean Temperature 15 °F -  
Max Temperature 34 °F 29 °F 60 °F (1950)
Min Temperature -4 °F 11 °F -24 °F (1981)
Degree Days  
Heating Degree Days 50    
Moisture  
Dew Point 9 °F    
Average Humidity 70    
Maximum Humidity 80    
Minimum Humidity 54    
Precipitation  
Precipitation 0.00 in - - ()
Sea Level Pressure  
Sea Level Pressure 29.87 in    
Wind  
Wind Speed 2 mph (SW)    
Max Wind Speed 12 mph    
Max Gust Speed 20 mph    
Visibility 8 miles    
Events Snow    
Averages and records for this station are not official NWS values.
T = Trace of Precipitation, MM = Missing Value Source: NWS Daily Summary

Daily Weather History Graph

Daily Weather History Graph

Search for Another Location

Airport or City:

Trip Planner

Search our weather history database for the weather conditions in past years. The results will help you decide how hot, cold, wet, or windy it might be!

Date:

Astronomy

Jan. 04, 2013 Rise Set
Actual Time 7:22 AM EST 4:26 PM EST
Civil Twilight 6:50 AM EST 4:58 PM EST
Nautical Twilight 6:14 AM EST 5:34 PM EST
Astronomical Twilight 5:39 AM EST 6:09 PM EST
Moon No Moon Rise 10:49 AM EST (1/4)
Length of Visible Light 10h 08m
Length of Day
9h 03m
Waning Gibbous, 55% of the Moon is Illuminated
Jan 4
Waning Gibbous
Jan 4
Last Quarter
Jan 11
New
Jan 18
First Quarter
Jan 26
Full

Hourly Weather History & Observations

Time (EST) Temp. Windchill Dew Point Humidity Pressure Visibility Wind Dir Wind Speed Gust Speed Precip Events Conditions
12:00 AM -2.2 °F - -7.6 °F 78% 29.93 in 9.0 mi Calm Calm - N/A   Overcast
12:53 AM -0.0 °F - -6.0 °F 76% 29.99 in 6.0 mi Calm Calm - 0.00 in   Haze
1:45 AM -2.2 °F - -7.6 °F 78% 29.91 in 8.0 mi Calm Calm - 0.00 in   Overcast
1:53 AM -4.0 °F - -9.0 °F 79% 29.98 in 8.0 mi Calm Calm - 0.00 in   Overcast
2:13 AM -4.0 °F - -9.4 °F 78% 29.91 in 9.0 mi Calm Calm - N/A   Mostly Cloudy
2:53 AM -4.0 °F - -9.0 °F 79% 29.97 in 9.0 mi Calm Calm - N/A   Clear
3:53 AM -0.9 °F - -6.0 °F 79% 29.96 in 10.0 mi Calm Calm - N/A   Overcast
4:53 AM 3.0 °F - -2.0 °F 80% 29.96 in 5.0 mi Calm Calm - 0.00 in Snow Light Snow
5:53 AM 3.9 °F - -0.9 °F 80% 29.95 in 5.0 mi Calm Calm - 0.00 in Snow Light Snow
6:53 AM 6.1 °F - -0.0 °F 76% 29.96 in 7.0 mi Calm Calm - 0.00 in   Overcast
8:08 AM 6.8 °F - 1.4 °F 79% 29.86 in 6.0 mi Calm Calm - N/A   Haze
8:41 AM 8.6 °F - 3.2 °F 79% 29.85 in 5.0 mi Calm Calm - N/A   Haze
8:53 AM 10.0 °F - 3.9 °F 76% 29.91 in 4.0 mi Calm Calm - N/A   Haze
9:40 AM 12.2 °F - 6.8 °F 79% 29.85 in 7.0 mi Calm Calm - N/A   Overcast
9:53 AM 12.0 °F - 6.1 °F 77% 29.91 in 7.0 mi Calm Calm - N/A   Overcast
10:53 AM 19.0 °F - 10.9 °F 71% 29.86 in 8.0 mi Calm Calm - N/A   Clear
11:53 AM 33.1 °F 25.5 °F 19.0 °F 56% 29.81 in 10.0 mi SW 9.2 mph - N/A   Partly Cloudy
12:53 PM 33.1 °F 24.4 °F 19.0 °F 56% 29.80 in 10.0 mi SW 11.5 mph 19.6 mph N/A   Overcast
1:53 PM 34.0 °F 28.0 °F 19.0 °F 54% 29.79 in 10.0 mi SW 6.9 mph 17.3 mph N/A   Overcast
2:53 PM 34.0 °F 26.6 °F 21.0 °F 59% 29.79 in 10.0 mi SW 9.2 mph - N/A   Overcast
3:53 PM 34.0 °F 26.6 °F 21.0 °F 59% 29.78 in 10.0 mi SW 9.2 mph - N/A   Overcast
4:53 PM 34.0 °F 26.6 °F 21.0 °F 59% 29.79 in 10.0 mi SSW 9.2 mph 16.1 mph N/A   Overcast
5:53 PM 34.0 °F 26.6 °F 21.9 °F 61% 29.79 in 10.0 mi SW 9.2 mph 18.4 mph N/A   Overcast
6:53 PM 33.1 °F 26.1 °F 21.9 °F 64% 29.79 in 10.0 mi South 8.1 mph - N/A   Overcast
7:53 PM 33.1 °F 24.9 °F 21.9 °F 64% 29.80 in 10.0 mi South 10.4 mph - N/A   Overcast
8:53 PM 34.0 °F 26.6 °F 21.0 °F 59% 29.80 in 10.0 mi SW 9.2 mph - N/A   Overcast
9:53 PM 33.1 °F 25.5 °F 23.0 °F 66% 29.80 in 10.0 mi SW 9.2 mph 19.6 mph N/A   Overcast
10:53 PM 33.1 °F 26.9 °F 23.0 °F 66% 29.80 in 10.0 mi SW 6.9 mph - N/A   Overcast
11:53 PM 33.1 °F 26.1 °F 24.1 °F 70% 29.80 in 5.0 mi WSW 8.1 mph - 0.00 in Snow Light Snow